User: anonymous   Login
Location: Fisheating Creek Campgrounds
(26.9333°N, 81.3167°W)
Time: 09:45:32
(UTC-04:00)
Language:

Cosmos 2221 Rocket - Orbit

View from above orbital plane
View from above orbital plane
View from above satellite
View from above satellite

Ground track
Ground track

The orbit data is extracted from the following two-line orbital elements,

1 22237U 92080B   17173.88931125 +.00000045 +00000-0 +29911-5 0  9997
2 22237 082.5128 112.4243 0019570 182.4000 208.0244 14.78318534324191
Epoch (UTC): 22 June 2017 21:20:36
Eccentricity: 0.0019570
inclination: 82.5128°
perigee height: 621 km
apogee height: 648 km
right ascension of ascending node: 112.4243°
argument of perigee: 182.4000°
revolutions per day: 14.78318534
mean anomaly at epoch: 208.0244°
orbit number at epoch: 32419

The dashed part of the orbit path shows where the satellite is in the earth's shadow,  

DLR